TCA7378 SVTC-SVMG

Flight info

Callsign TCA7378
Flight time 0h 35m
Altitude 24000
Route MUN A300 PILAR DCT UGEMI
Aircraft C25B/M-SDE2E3FGHRWXY/LB1

Departure

Time 2026-05-09 12:31
Airport Tucupita Airport (SVTC)

Arrival

Time 2026-05-09 13:06
Airport Del Caribe Santiago Mariño International Airport (SVMG)
Time Latitude Longitude Altitude Speed Heading
2026-05-09 11:25 9.08545 -62.10087 21 ft 0 kts 332°
2026-05-09 12:18 9.08544 -62.10087 21 ft 0 kts 332°
2026-05-09 12:30 9.08555 -62.10097 23 ft 7 kts 308°
2026-05-09 12:31 9.08590 -62.10093 23 ft 7 kts 65°
2026-05-09 12:31 9.08984 -62.09248 257 ft 160 kts 64°
2026-05-09 12:31 9.09526 -62.08119 1453 ft 197 kts 65°
2026-05-09 12:32 9.10245 -62.06874 2830 ft 220 kts 47°
2026-05-09 12:32 9.11654 -62.06294 4241 ft 231 kts
2026-05-09 12:32 9.13187 -62.06835 5541 ft 245 kts 324°
2026-05-09 12:32 9.14138 -62.08276 6816 ft 252 kts 292°
2026-05-09 12:33 9.14779 -62.09947 8040 ft 257 kts 295°
2026-05-09 12:33 9.15617 -62.11558 9232 ft 261 kts 301°
2026-05-09 12:33 9.16562 -62.13150 10383 ft 266 kts 302°
2026-05-09 12:33 9.17494 -62.14755 11470 ft 270 kts 301°
2026-05-09 12:34 9.18432 -62.16423 12555 ft 275 kts 300°
2026-05-09 12:34 9.19390 -62.18107 13643 ft 278 kts 300°
2026-05-09 12:34 9.20355 -62.19816 14722 ft 281 kts 300°
2026-05-09 12:34 9.21340 -62.21542 15726 ft 286 kts 300°
2026-05-09 12:35 9.22338 -62.23304 16682 ft 291 kts 299°
2026-05-09 12:35 9.23352 -62.25098 17612 ft 296 kts 298°
2026-05-09 12:35 9.24386 -62.26914 18555 ft 299 kts 298°
2026-05-09 12:35 9.25421 -62.28746 19529 ft 300 kts 298°
2026-05-09 12:36 9.26467 -62.30583 20478 ft 301 kts 297°
2026-05-09 12:36 9.27497 -62.32406 21332 ft 304 kts 297°
2026-05-09 12:36 9.28554 -62.34273 22169 ft 307 kts 297°
2026-05-09 12:36 9.29626 -62.36158 22983 ft 310 kts 296°
2026-05-09 12:37 9.30705 -62.38062 23776 ft 314 kts 296°
2026-05-09 12:37 9.31822 -62.40042 23980 ft 336 kts 295°
2026-05-09 12:37 9.33018 -62.42173 23994 ft 358 kts 296°
2026-05-09 12:37 9.34274 -62.44366 23994 ft 361 kts 296°
2026-05-09 12:38 9.35536 -62.46579 23993 ft 364 kts 296°
2026-05-09 12:38 9.36776 -62.48783 23993 ft 366 kts 296°
2026-05-09 12:38 9.38040 -62.51027 23992 ft 368 kts 296°
2026-05-09 12:38 9.39319 -62.53273 23992 ft 369 kts 296°
2026-05-09 12:39 9.40601 -62.55533 23991 ft 371 kts 296°
2026-05-09 12:39 9.41882 -62.57803 23991 ft 372 kts 296°
2026-05-09 12:39 9.43164 -62.60081 23991 ft 373 kts 296°
2026-05-09 12:39 9.44462 -62.62358 23991 ft 373 kts 296°
2026-05-09 12:40 9.45751 -62.64642 23992 ft 374 kts 296°
2026-05-09 12:40 9.47027 -62.66895 23990 ft 374 kts 296°
2026-05-09 12:40 9.48317 -62.69185 23992 ft 374 kts 296°
2026-05-09 12:40 9.49616 -62.71474 23990 ft 375 kts 296°
2026-05-09 12:41 9.50911 -62.73769 23992 ft 375 kts 296°
2026-05-09 12:41 9.52203 -62.76067 23992 ft 376 kts 296°
2026-05-09 12:41 9.53507 -62.78360 23991 ft 376 kts 296°
2026-05-09 12:41 9.54803 -62.80661 23992 ft 376 kts 296°
2026-05-09 12:42 9.56104 -62.82965 23990 ft 377 kts 296°
2026-05-09 12:42 9.57405 -62.85271 23990 ft 377 kts 297°
2026-05-09 12:42 9.58692 -62.87544 23991 ft 377 kts 297°
2026-05-09 12:42 9.59989 -62.89851 23991 ft 377 kts 297°
2026-05-09 12:43 9.61288 -62.92153 23992 ft 377 kts 297°
2026-05-09 12:43 9.62593 -62.94457 23991 ft 377 kts 297°
2026-05-09 12:43 9.63890 -62.96766 23992 ft 377 kts 297°
2026-05-09 12:43 9.65194 -62.99072 23992 ft 377 kts 297°
2026-05-09 12:44 9.66492 -63.01382 23991 ft 377 kts 297°
2026-05-09 12:44 9.67795 -63.03692 23989 ft 378 kts 297°
2026-05-09 12:44 9.69103 -63.06005 23988 ft 378 kts 297°
2026-05-09 12:44 9.70385 -63.08286 23989 ft 378 kts 297°
2026-05-09 12:45 9.71685 -63.10597 23989 ft 377 kts 297°
2026-05-09 12:45 9.73000 -63.12899 23987 ft 377 kts 299°
2026-05-09 12:45 9.74620 -63.14995 23971 ft 380 kts 310°
2026-05-09 12:45 9.76571 -63.16812 23964 ft 383 kts 320°
2026-05-09 12:46 9.78793 -63.18315 23965 ft 384 kts 323°
2026-05-09 12:46 9.80995 -63.19845 23967 ft 384 kts 323°
2026-05-09 12:46 9.83212 -63.21364 23967 ft 385 kts 323°
2026-05-09 12:46 9.85412 -63.22847 23968 ft 385 kts 323°
2026-05-09 12:47 9.87637 -63.24360 23970 ft 385 kts 323°
2026-05-09 12:47 9.89858 -63.25877 23970 ft 385 kts 323°
2026-05-09 12:47 9.92080 -63.27390 23970 ft 384 kts 323°
2026-05-09 12:47 9.94301 -63.28904 23970 ft 385 kts 323°
2026-05-09 12:48 9.96521 -63.30417 23972 ft 385 kts 324°
2026-05-09 12:48 9.98747 -63.31929 23973 ft 385 kts 323°
2026-05-09 12:48 10.00964 -63.33448 23972 ft 385 kts 324°
2026-05-09 12:48 10.03156 -63.34944 23972 ft 385 kts 325°
2026-05-09 12:49 10.05382 -63.36454 23972 ft 385 kts 325°
2026-05-09 12:49 10.07598 -63.37968 23828 ft 379 kts 324°
2026-05-09 12:49 10.09752 -63.39434 23364 ft 368 kts 325°
2026-05-09 12:49 10.11844 -63.40865 22881 ft 358 kts 325°
2026-05-09 12:50 10.13885 -63.42258 22415 ft 350 kts 325°
2026-05-09 12:50 10.15886 -63.43623 21955 ft 343 kts 325°
2026-05-09 12:50 10.17827 -63.44945 21509 ft 337 kts 325°
2026-05-09 12:50 10.19760 -63.46266 21061 ft 333 kts 325°
2026-05-09 12:51 10.21671 -63.47572 20623 ft 329 kts 325°
2026-05-09 12:51 10.23561 -63.48864 20190 ft 326 kts 326°
2026-05-09 12:51 10.25434 -63.50141 19757 ft 323 kts 325°
2026-05-09 12:51 10.27291 -63.51409 19328 ft 321 kts 326°
2026-05-09 12:52 10.29133 -63.52672 18907 ft 319 kts 326°
2026-05-09 12:52 10.30969 -63.53922 18484 ft 317 kts 326°
2026-05-09 12:52 10.32791 -63.55171 18064 ft 315 kts 326°
2026-05-09 12:52 10.34582 -63.56392 17649 ft 314 kts 326°
2026-05-09 12:53 10.36376 -63.57638 17259 ft 311 kts 323°
2026-05-09 12:53 10.37863 -63.59203 16849 ft 309 kts 307°
2026-05-09 12:53 10.39167 -63.60928 16447 ft 308 kts 308°
2026-05-09 12:53 10.40487 -63.62638 16041 ft 307 kts 307°
2026-05-09 12:54 10.41781 -63.64359 15635 ft 307 kts 308°
2026-05-09 12:54 10.43077 -63.66075 15223 ft 306 kts 307°
2026-05-09 12:54 10.44381 -63.67782 14818 ft 305 kts 308°
2026-05-09 12:54 10.45671 -63.69487 14413 ft 304 kts 308°
2026-05-09 12:55 10.46960 -63.71183 14008 ft 303 kts 308°
2026-05-09 12:55 10.48228 -63.72857 13612 ft 303 kts 308°
2026-05-09 12:55 10.49509 -63.74548 13211 ft 302 kts 308°
2026-05-09 12:55 10.50794 -63.76233 12810 ft 301 kts 308°
2026-05-09 12:56 10.52063 -63.77920 12409 ft 300 kts 308°
2026-05-09 12:56 10.53340 -63.79597 12012 ft 300 kts 308°
2026-05-09 12:56 10.54615 -63.81279 11611 ft 300 kts 308°
2026-05-09 12:56 10.55884 -63.82954 11214 ft 299 kts 308°
2026-05-09 12:57 10.57150 -63.84630 10814 ft 299 kts 309°
2026-05-09 12:57 10.58403 -63.86272 10427 ft 298 kts 308°
2026-05-09 12:57 10.59661 -63.87948 10029 ft 299 kts 309°
2026-05-09 12:57 10.60930 -63.89614 9640 ft 298 kts 309°
2026-05-09 12:58 10.62192 -63.91287 9235 ft 297 kts 309°
2026-05-09 12:58 10.63456 -63.92948 8839 ft 297 kts 309°
2026-05-09 12:58 10.64708 -63.94608 8448 ft 296 kts 309°
2026-05-09 12:58 10.65962 -63.96257 8053 ft 293 kts 309°
2026-05-09 12:59 10.67182 -63.97879 7671 ft 284 kts 309°
2026-05-09 12:59 10.68367 -63.99447 7333 ft 276 kts 309°
2026-05-09 12:59 10.69512 -64.00952 7020 ft 270 kts 309°
2026-05-09 12:59 10.70645 -64.02451 6704 ft 264 kts 309°
2026-05-09 13:00 10.71754 -64.03914 6392 ft 259 kts 309°
2026-05-09 13:00 10.72845 -64.05364 6074 ft 257 kts 309°
2026-05-09 13:00 10.73934 -64.06799 5748 ft 256 kts 310°
2026-05-09 13:00 10.75042 -64.08198 5408 ft 251 kts 317°
2026-05-09 13:01 10.76567 -64.08934 5006 ft 244 kts 357°
2026-05-09 13:01 10.78193 -64.08674 4653 ft 233 kts 18°
2026-05-09 13:01 10.79716 -64.08310 4327 ft 224 kts 11°
2026-05-09 13:01 10.81250 -64.08218 3990 ft 218 kts
2026-05-09 13:02 10.82731 -64.08214 3709 ft 205 kts
2026-05-09 13:02 10.84125 -64.08182 3435 ft 197 kts
2026-05-09 13:02 10.85479 -64.08139 3160 ft 193 kts
2026-05-09 13:02 10.86787 -64.08016 2870 ft 185 kts 18°
2026-05-09 13:03 10.87912 -64.07466 2571 ft 171 kts 35°
2026-05-09 13:03 10.88722 -64.06725 2386 ft 138 kts 52°
2026-05-09 13:03 10.89220 -64.05989 2203 ft 122 kts 61°
2026-05-09 13:03 10.89508 -64.05221 1923 ft 115 kts 78°
2026-05-09 13:04 10.89654 -64.04434 1594 ft 112 kts 78°
2026-05-09 13:04 10.89828 -64.03641 1231 ft 117 kts 78°
2026-05-09 13:04 10.89995 -64.02840 995 ft 112 kts 78°
2026-05-09 13:04 10.90150 -64.02088 850 ft 106 kts 78°
2026-05-09 13:05 10.90300 -64.01365 714 ft 104 kts 79°
2026-05-09 13:05 10.90446 -64.00647 580 ft 103 kts 78°
2026-05-09 13:05 10.90593 -63.99935 450 ft 104 kts 79°
2026-05-09 13:05 10.90737 -63.99208 319 ft 106 kts 78°
2026-05-09 13:06 10.90888 -63.98495 187 ft 104 kts 78°
2026-05-09 13:06 10.91033 -63.97779 75 ft 100 kts 78°
2026-05-09 13:06 10.91153 -63.97199 61 ft 60 kts 78°
2026-05-09 13:06 10.91202 -63.97113 59 ft 10 kts 328°
2026-05-09 13:07 10.91295 -63.97142 58 ft 17 kts 341°
2026-05-09 13:07 10.91390 -63.97171 56 ft 12 kts 351°
2026-05-09 13:07 10.91439 -63.97157 56 ft 6 kts 347°
2026-05-09 13:07 10.91451 -63.97143 53 ft 0 kts 80°